Lid_Strength_Index
1 1 1 1 0 0 -0 -0 -0 -0 -0 -0 -0 -1 -1 -1 -0 3 6 3 2 -1 1 5 5 6 6 7 6 8 13 14 12 12 11 10 10 10 10 10 10 8 9 9 8
2 2 1 1 1 1 0 0 0 0 -0 -0 -0 -0 -1 -0 3 5 1 -3 -2 -1 4 6 7 7 9 8 7 9 13 11 10 11 11 10 10 9 11 11 10 10 10 8 9
2 2 2 2 1 1 1 1 0 0 0 0 0 -0 -0 1 5 6 -2 -3 -2 -1 4 6 6 7 9 8 9 10 12 9 9 9 9 10 11 9 10 11 10 10 10 9 10
2 2 2 2 2 1 1 1 1 0 0 0 0 -0 0 3 13 5 -1 -2 -1 3 5 6 7 9 10 10 8 11 9 8 8 9 9 10 9 10 10 9 8 8 8 9 10
2 2 2 2 2 2 1 1 1 1 0 0 0 -0 2 7 7 3 -0 -0 3 4 6 7 8 8 10 9 9 10 9 8 8 9 9 9 10 10 10 9 8 8 9 9 10
2 2 2 2 2 2 2 2 1 1 1 1 0 0 6 10 5 4 5 4 5 6 7 7 8 7 9 9 10 10 9 9 9 9 9 10 11 10 9 8 8 9 9 10 9
2 2 2 2 2 2 2 2 2 2 2 2 1 2 7 9 5 5 6 6 6 6 7 7 7 8 9 9 8 9 11 10 10 9 10 9 11 11 8 9 9 9 9 10 9
2 3 3 3 3 3 3 3 3 2 2 1 1 4 10 5 7 6 6 7 6 6 7 6 7 7 8 8 10 12 13 14 11 10 10 10 13 10 8 10 9 10 10 10 9
3 4 4 3 3 3 3 3 3 2 2 1 5 7 10 4 7 6 7 7 7 7 7 6 7 9 9 12 14 13 15 14 12 10 11 11 13 10 9 10 10 11 10 10 10
3 3 3 3 3 3 3 3 3 3 3 3 4 10 9 9 7 7 8 7 8 8 8 9 10 12 12 14 16 16 15 14 14 12 12 13 12 10 10 11 11 11 11 10 9
3 3 3 3 3 3 4 7 10 10 8 11 10 10 9 7 7 8 8 8 8 10 13 11 14 15 12 11 12 14 14 15 12 10 12 12 11 11 10 11 11 10 9 10 9
2 2 3 2 2 2 5 9 9 9 13 9 10 9 8 7 10 8 8 11 11 13 13 13 15 12 11 11 12 13 14 14 12 11 12 13 13 11 11 10 9 10 10 9 9
2 2 2 2 2 5 7 8 6 7 12 11 10 11 10 8 10 9 9 11 13 14 13 14 13 11 12 12 13 13 14 14 14 12 13 14 15 14 12 10 10 9 9 8 8
2 2 3 3 5 6 8 7 6 7 18 15 12 10 9 9 12 9 9 11 13 14 14 14 12 12 13 14 12 15 12 13 13 15 16 14 18 15 13 12 11 10 10 9 10
3 3 3 3 7 7 7 6 7 9 23 13 12 8 9 12 12 12 11 12 14 14 14 14 14 14 14 13 13 14 13 13 15 16 17 16 17 17 14 15 13 11 10 10 10
3 3 3 5 6 6 6 7 9 17 22 15 12 13 13 12 12 12 12 11 12 13 13 14 13 13 13 14 13 13 15 16 16 17 20 17 16 18 16 14 14 11 10 10 10
3 3 4 4 6 6 6 8 14 19 14 15 14 13 13 13 13 13 14 15 16 18 18 15 14 13 12 14 14 15 16 20 21 22 20 16 18 16 14 14 13 12 11 10 12
3 3 4 3 5 6 7 11 17 14 14 13 14 14 15 13 13 14 15 16 15 16 17 18 18 14 13 13 15 16 14 19 23 22 19 19 21 18 13 11 12 12 11 12 12
4 4 5 4 4 5 9 15 14 12 11 11 11 15 15 14 14 14 16 16 14 14 16 17 17 14 14 13 12 16 17 14 17 24 22 17 17 15 14 13 13 13 14 13 13
4 5 5 4 4 7 12 13 11 9 9 11 13 12 15 15 14 14 15 14 13 12 11 14 17 14 15 15 15 15 14 18 18 23 25 18 18 16 15 13 12 14 13 13 13
5 6 6 4 4 9 15 14 12 9 9 10 11 12 13 13 14 14 14 13 13 12 11 13 14 14 16 16 16 17 16 16 16 17 19 20 17 16 15 14 13 13 13 13 13
5 9 4 3 9 10 12 11 9 10 10 9 12 11 11 11 12 12 12 11 11 11 13 13 14 16 15 14 14 14 14 14 17 18 18 17 17 11 12 14 13 13 13 12 12
7 6 4 4 12 11 10 10 9 9 9 9 10 9 9 11 13 11 11 8 8 9 12 12 15 18 17 14 15 15 14 14 14 15 16 18 18 11 11 13 14 14 14 13 12
8 10 7 6 6 9 11 11 11 8 9 8 9 8 10 12 10 12 12 9 9 10 9 10 14 15 18 15 13 15 14 14 14 16 16 17 16 13 12 12 11 10 9 9 11
9 11 8 12 10 9 9 10 11 12 8 8 10 10 11 13 12 13 11 10 8 8 9 10 15 14 13 12 12 13 13 13 15 14 16 15 15 13 12 11 11 10 10 11 11
10 11 9 11 9 9 9 10 11 10 10 11 11 11 12 12 12 13 11 11 11 11 10 10 15 13 15 13 13 15 13 12 13 12 13 13 14 10 9 9 9 9 9 10 10
8 7 8 12 12 13 13 10 10 9 9 8 10 11 12 11 8 10 11 11 12 12 11 12 13 15 17 14 14 17 14 13 12 11 11 15 12 10 11 9 9 9 9 10 9